TimeMST,TemperatureF,Dew PointF,Humidity,Sea Level PressureIn,VisibilityMPH,Wind Direction,Wind SpeedMPH,Gust SpeedMPH,PrecipitationIn,Events,Conditions,WindDirDegrees,DateUTC
12:53 AM,-8.0,-13.0,79,30.11,10.0,Calm,Calm,-,N/A,,Clear,0,2014-01-31 07:53:00
1:53 AM,-8.0,-13.0,79,30.10,10.0,SW,5.8,-,N/A,,Clear,220,2014-01-31 08:53:00
2:53 AM,-9.0,-14.1,79,30.08,10.0,WSW,5.8,-,N/A,,Clear,240,2014-01-31 09:53:00
3:53 AM,-9.9,-15.0,78,30.05,10.0,WSW,3.5,-,N/A,,Clear,240,2014-01-31 10:53:00
4:53 AM,-11.0,-15.0,83,30.04,10.0,Calm,Calm,-,N/A,,Clear,0,2014-01-31 11:53:00
5:53 AM,-11.9,-17.0,78,30.01,10.0,SW,3.5,-,N/A,,Clear,220,2014-01-31 12:53:00
6:53 AM,-9.9,-14.1,82,29.99,10.0,West,5.8,-,N/A,,Clear,260,2014-01-31 13:53:00
7:53 AM,-9.0,-14.1,79,29.99,10.0,WSW,3.5,-,N/A,,Clear,250,2014-01-31 14:53:00
8:53 AM,-5.1,-9.9,80,29.96,10.0,SSW,4.6,-,N/A,,Clear,210,2014-01-31 15:53:00
9:53 AM,-0.9,-6.0,79,29.94,10.0,Calm,Calm,-,N/A,,Clear,0,2014-01-31 16:53:00
10:53 AM,5.0,-0.9,76,29.91,10.0,WNW,3.5,-,N/A,,Clear,300,2014-01-31 17:53:00
11:53 AM,10.0,1.0,67,29.88,10.0,West,11.5,-,N/A,,Clear,260,2014-01-31 18:53:00
12:53 PM,15.1,3.0,59,29.85,10.0,West,19.6,-,N/A,,Clear,260,2014-01-31 19:53:00
1:53 PM,15.1,3.9,61,29.84,10.0,West,21.9,-,N/A,,Clear,260,2014-01-31 20:53:00
2:53 PM,17.1,5.0,59,29.88,10.0,WNW,20.7,-,N/A,,Mostly Cloudy,290,2014-01-31 21:53:00
3:53 PM,16.0,5.0,62,29.92,10.0,WNW,18.4,-,0.00,,Overcast,300,2014-01-31 22:53:00
4:53 PM,12.9,3.0,65,29.97,10.0,WNW,15.0,21.9,N/A,,Mostly Cloudy,300,2014-01-31 23:53:00
5:53 PM,12.9,1.9,62,30.02,10.0,NW,11.5,-,N/A,,Overcast,320,2014-02-01 00:53:00
6:53 PM,10.9,1.0,64,30.06,10.0,WNW,12.7,-,N/A,,Overcast,300,2014-02-01 01:53:00
7:53 PM,10.0,1.0,67,30.09,10.0,NW,10.4,-,N/A,,Overcast,310,2014-02-01 02:53:00
8:48 PM,8.6,-2.2,62,29.96,10.0,NW,13.8,-,N/A,,Overcast,320,2014-02-01 03:48:00
8:53 PM,7.0,-2.0,67,30.12,10.0,NW,10.4,-,N/A,,Overcast,310,2014-02-01 03:53:00
9:11 PM,6.1,-2.9,67,29.97,10.0,NW,11.5,-,N/A,,Scattered Clouds,320,2014-02-01 04:11:00
9:44 PM,3.9,-4.0,70,29.99,10.0,NW,9.2,-,N/A,,Mostly Cloudy,310,2014-02-01 04:44:00
9:53 PM,3.9,-4.0,70,30.14,10.0,NW,8.1,-,N/A,,Overcast,310,2014-02-01 04:53:00
10:39 PM,1.9,-5.1,72,29.99,10.0,West,4.6,-,N/A,,Scattered Clouds,270,2014-02-01 05:39:00
10:53 PM,3.9,-4.0,70,30.15,10.0,WSW,4.6,-,N/A,,Mostly Cloudy,250,2014-02-01 05:53:00
11:53 PM,3.9,-4.0,70,30.16,10.0,NW,5.8,-,N/A,,Mostly Cloudy,320,2014-02-01 06:53:00